Springfield, IL

12:21 AM CST on November 20, 2019 (GMT -0600)
Capital

Weather History for KSPI - October, 2019

Change the Weather History Date:

Saturday, October 19, 2019

  Actual Average Record
Temperature  
Mean Temperature 58 °F 54 °F  
Max Temperature 69 °F 65 °F 85 °F (1953)
Min Temperature 46 °F 43 °F 19 °F (1992)
Degree Days  
Heating Degree Days 7 11  
Month to date heating degree days 176 169  
Since 1 July heating degree days 177 250  
Cooling Degree Days 0 0  
Month to date cooling degree days 32 19  
Year to date cooling degree days 1309 1118  
Growing Degree Days 8 (Base 50)    
Moisture  
Dew Point 44 °F    
Average Humidity 63    
Maximum Humidity 86    
Minimum Humidity 39    
Precipitation  
Precipitation T in 0.11 in 1.64 in (1885)
Month to date precipitation 0.68 1.90  
Year to date precipitation 41.23 30.45  
Snow  
Snow 0.00 in 0.00 in 0.30 in (1989)
Month to date snowfall 0.0 0.0  
Since 1 July snowfall 0.0 0.0  
Since 1 September snowfall 0.0 0.0  
Snow Depth 0.00 in    
Sea Level Pressure  
Sea Level Pressure 29.80 in    
Wind  
Wind Speed 7 mph (SSW)    
Max Wind Speed 15 mph    
Max Gust Speed 23 mph    
Visibility 10 miles    
Events Rain    
T = Trace of Precipitation, MM = Missing Value Source: NWS Daily Summary

Daily Weather History Graph

Daily Weather History Graph

Search for Another Location

Airport or City:

Astronomy

Oct. 19, 2019 Rise Set
Actual Time 7:13 AM CDT 6:13 PM CDT
Civil Twilight 6:45 AM CDT 6:41 PM CDT
Nautical Twilight 6:14 AM CDT 7:12 PM CDT
Astronomical Twilight 5:42 AM CDT 7:43 PM CDT
Moon 10:23 PM CDT (10/19) 12:45 PM CDT (10/19)
Length of Visible Light 11h 55m
Length of Day
11h 00m
Waning Gibbous, 69% of the Moon is Illuminated
Oct 19
Waning Gibbous
Oct 21
Last Quarter
Oct 27
New
Nov 4
First Quarter
Nov 12
Full

Hourly Weather History & Observations

Time (CDT) Temp. Dew Point Humidity Pressure Visibility Wind Dir Wind Speed Gust Speed Precip Events Conditions
12:52 AM 48.0 °F 39.0 °F 71% 29.86 in 10.0 mi SE 5.8 mph - N/A   Clear
1:52 AM 52.0 °F 39.0 °F 61% 29.85 in 10.0 mi SSE 9.2 mph - N/A   Clear
2:52 AM 52.0 °F 39.0 °F 61% 29.84 in 10.0 mi SSE 11.5 mph - N/A   Clear
3:52 AM 53.1 °F 39.0 °F 59% 29.84 in 10.0 mi SSE 10.4 mph 18.4 mph N/A   Clear
4:52 AM 52.0 °F 39.9 °F 63% 29.85 in 10.0 mi South 9.2 mph - N/A   Clear
5:52 AM 48.9 °F 39.9 °F 71% 29.85 in 10.0 mi SSE 6.9 mph - N/A   Clear
6:52 AM 48.0 °F 39.9 °F 74% 29.86 in 10.0 mi South 6.9 mph - N/A   Clear
7:52 AM 48.9 °F 39.9 °F 71% 29.84 in 10.0 mi South 8.1 mph - N/A   Clear
8:52 AM 53.1 °F 42.1 °F 66% 29.85 in 10.0 mi South 9.2 mph - N/A   Clear
9:52 AM 57.0 °F 43.0 °F 59% 29.84 in 10.0 mi South 8.1 mph - N/A   Clear
10:52 AM 62.1 °F 44.1 °F 52% 29.81 in 10.0 mi South 8.1 mph - N/A   Clear
11:52 AM 64.0 °F 44.1 °F 48% 29.80 in 10.0 mi South 9.2 mph - N/A   Clear
12:52 PM 68.0 °F 43.0 °F 40% 29.77 in 10.0 mi SSE 12.7 mph 17.3 mph N/A   Clear
1:52 PM 68.0 °F 43.0 °F 40% 29.74 in 10.0 mi SW 8.1 mph - N/A   Clear
2:52 PM 68.0 °F 43.0 °F 40% 29.73 in 10.0 mi SSW 8.1 mph - N/A   Clear
3:52 PM 66.9 °F 44.1 °F 44% 29.74 in 10.0 mi SSW 8.1 mph - N/A   Scattered Clouds
4:52 PM 64.9 °F 46.0 °F 50% 29.74 in 10.0 mi SW 4.6 mph - N/A   Overcast
5:52 PM 62.1 °F 48.0 °F 60% 29.76 in 10.0 mi WSW 3.5 mph - 0.00 in Rain Light Rain
6:52 PM 57.9 °F 51.1 °F 78% 29.77 in 10.0 mi West 3.5 mph - 0.00 in   Overcast
7:52 PM 57.9 °F 51.1 °F 78% 29.78 in 10.0 mi Calm Calm - N/A   Overcast
8:52 PM 57.0 °F 51.1 °F 81% 29.78 in 10.0 mi WSW 3.5 mph - N/A   Overcast
9:52 PM 57.0 °F 51.1 °F 81% 29.79 in 10.0 mi WSW 4.6 mph - N/A   Overcast
10:52 PM 55.9 °F 51.1 °F 84% 29.80 in 10.0 mi West 4.6 mph - N/A   Overcast
11:52 PM 55.9 °F 51.1 °F 84% 29.81 in 10.0 mi WNW 5.8 mph - N/A   Overcast